Probability
0 0 0 0 0 0 0 0 0 0 0 0 0 0 0 0 0 0 0 0 0 0 0 0 0 0 0 0 0 0 0 0 0 1 3 8 13 18 22 24 26 28 27 25
0 0 0 0 0 0 0 0 0 0 0 0 0 0 0 0 0 0 0 0 0 0 0 0 0 0 0 0 0 0 0 0 0 1 2 6 12 19 25 26 26 29 32 32
0 0 0 0 0 0 0 0 0 0 0 0 0 0 0 0 0 0 0 0 0 0 0 0 0 0 0 0 0 0 0 0 0 1 1 4 11 20 27 31 33 36 38 37
0 0 0 0 0 0 0 0 0 0 0 0 0 0 0 0 0 0 0 0 0 0 0 0 0 0 0 0 0 0 0 0 0 0 1 4 10 17 24 33 40 45 44 42
0 0 0 0 0 0 0 0 0 0 0 0 0 0 0 0 0 0 0 0 0 0 0 0 0 0 0 0 0 0 0 1 1 1 1 2 5 11 18 27 37 44 47 47
0 0 0 0 0 0 0 0 0 0 0 0 0 0 0 0 0 0 0 0 0 0 0 0 0 0 0 0 0 0 0 1 2 2 2 2 3 6 10 17 27 35 39 42
0 0 0 0 0 0 0 0 0 0 0 0 0 0 0 0 0 0 0 0 0 0 0 0 0 0 0 0 0 0 0 1 1 2 2 3 4 5 6 11 18 23 26 27
0 0 0 0 0 0 0 0 0 0 0 0 0 0 0 0 0 0 0 0 0 0 0 0 0 0 0 0 0 0 0 0 0 1 1 2 3 4 4 6 11 13 15 16
0 0 0 0 0 0 0 0 0 0 0 0 0 0 0 0 0 0 0 0 0 0 0 0 0 0 0 0 0 0 0 0 0 0 0 1 1 1 2 3 5 7 8 8
0 0 0 0 0 0 0 0 0 0 0 0 0 0 0 0 0 0 0 0 0 0 0 0 0 0 0 0 0 0 0 0 0 0 0 0 0 0 0 1 1 3 3 3
0 0 0 0 0 0 0 0 0 0 0 0 0 0 0 0 0 0 0 0 0 0 0 0 0 0 0 0 0 0 0 0 0 0 0 0 0 0 0 0 0 1 2 2
0 0 0 0 0 0 0 0 0 0 0 0 0 0 0 0 0 0 0 0 0 0 0 0 0 0 0 0 0 0 0 0 0 0 0 0 0 0 0 0 0 0 1 1
0 0 0 0 0 0 0 0 0 0 0 0 0 0 0 0 0 0 0 0 0 0 0 0 0 0 0 0 0 0 0 0 0 0 0 0 0 0 0 0 0 0 0 0
0 0 0 0 0 0 0 0 0 0 0 0 0 0 0 0 0 0 0 0 0 0 0 0 0 0 0 0 0 0 0 0 0 0 0 0 0 0 0 0 0 0 0 0
0 0 0 0 0 0 0 0 0 0 0 0 0 0 0 0 0 0 0 0 0 0 0 0 0 0 0 0 0 0 0 0 0 0 0 0 0 0 0 0 0 0 0 0
0 0 0 0 0 0 0 0 0 0 0 0 0 0 0 0 0 0 0 0 0 0 0 0 0 0 0 0 0 0 0 0 0 0 0 0 0 0 0 0 0 0 0 0
0 0 0 0 0 0 0 0 0 0 0 0 0 0 0 0 0 0 0 0 0 0 0 0 0 0 0 0 0 0 0 0 0 0 0 0 0 0 0 0 0 0 0 0
0 0 0 0 0 0 0 0 0 0 0 0 0 0 0 0 0 0 0 0 0 0 0 0 0 0 0 0 0 0 0 0 0 0 0 0 0 0 0 0 0 0 0 0
0 0 0 0 0 0 0 0 0 0 0 0 0 0 0 0 0 0 0 0 0 0 0 0 0 0 0 0 0 0 0 0 0 0 0 0 0 0 0 0 0 0 0 0
0 0 0 0 0 0 0 0 0 0 0 0 0 0 0 0 0 0 0 0 0 0 0 0 0 0 0 0 0 0 0 0 0 0 0 0 0 0 0 0 0 0 0 0
0 0 0 0 0 0 0 0 0 0 0 0 0 0 0 0 0 0 0 0 0 0 0 0 0 0 0 0 0 0 0 0 0 0 0 0 0 0 0 0 0 0 0 0
0 0 0 0 0 0 0 0 0 0 0 0 0 0 0 0 0 0 0 0 0 0 0 0 0 0 0 0 0 0 0 0 0 0 0 0 0 0 0 0 0 0 0 0
0 0 0 0 0 0 0 0 0 0 0 0 0 0 0 0 0 0 0 0 0 0 0 0 0 0 0 0 0 0 0 0 0 0 0 0 0 0 0 0 0 0 0 0
0 0 0 0 0 0 0 0 0 0 0 0 0 0 0 0 0 0 0 0 0 0 0 0 0 0 0 0 0 0 0 0 0 0 0 0 0 0 0 0 0 0 0 0
0 0 0 0 0 0 0 0 0 0 0 0 0 0 0 0 0 0 0 0 0 0 0 0 0 0 0 0 0 0 0 0 0 0 0 0 0 0 0 0 0 0 0 0
0 0 0 0 0 0 0 0 0 0 0 0 0 0 0 0 0 0 0 0 0 0 0 0 0 0 0 0 0 0 0 0 0 0 0 0 0 0 0 0 0 0 0 0
Wind_Speed
5 6 8 8 6 4 4 3 1 6 5 6 10 10 8 9 11 12 12 13 13 13 13 13 12 12 11 10 10 10 10 9 7 6 6 5 5 5 5 5 8 9 10 9
6 9 7 4 2 1 2 2 4 7 5 5 8 8 7 8 11 12 13 13 14 15 15 14 13 13 12 11 11 10 10 10 8 6 6 5 6 6 5 5 7 9 10 10
9 7 4 3 5 1 2 2 2 5 6 6 5 6 5 7 9 12 12 13 14 14 15 15 15 14 13 11 11 9 10 10 9 9 6 6 5 5 4 5 5 7 9 10
9 5 3 4 7 5 2 3 1 6 7 4 4 3 6 7 10 13 14 14 14 14 14 14 15 14 13 12 11 10 9 9 9 8 7 8 6 6 6 5 4 6 7 9
7 5 6 5 5 6 4 2 3 6 5 4 0 4 6 7 12 15 15 14 14 14 14 14 14 13 13 12 11 10 10 9 9 8 7 7 6 5 5 4 4 4 4 6
8 4 6 6 2 3 0 5 6 6 6 4 3 4 5 8 12 14 13 14 14 14 14 13 13 13 12 12 11 10 10 10 10 9 8 7 8 7 6 4 3 2 1 2
7 6 4 4 2 2 3 6 5 7 5 3 2 1 5 8 10 10 12 12 12 12 13 13 14 14 13 13 12 11 12 11 11 10 9 9 8 7 6 5 3 2 1 0
5 5 5 6 6 4 3 5 5 4 1 4 2 2 5 5 6 7 8 9 11 11 11 13 13 13 12 12 12 12 12 11 11 11 10 9 9 6 5 6 4 4 3 2
2 6 4 5 6 4 1 3 4 3 1 2 4 3 4 3 6 8 9 10 11 11 11 12 12 12 12 12 11 11 11 11 11 11 11 10 10 9 8 7 6 4 4 3
1 6 4 2 2 6 5 3 3 3 3 1 3 1 2 5 7 8 9 10 11 11 11 11 10 11 11 10 10 10 11 11 10 10 9 8 10 10 9 8 9 8 7 5
1 4 5 3 5 7 1 1 2 1 3 3 1 3 4 4 5 7 8 9 9 10 10 10 9 8 9 10 9 9 10 11 11 11 10 10 10 10 9 9 9 8 7 6
1 1 5 5 4 3 4 3 3 3 2 2 0 4 3 1 3 4 6 7 7 8 9 9 9 8 8 9 9 10 10 10 10 10 10 10 10 10 10 10 10 9 9 8
3 3 5 7 6 4 2 2 1 2 1 1 1 5 4 1 1 2 4 6 7 8 9 9 8 8 9 9 9 9 9 10 9 9 10 10 11 11 11 10 10 10 9 9
3 0 3 4 5 2 2 2 2 4 2 2 1 2 4 2 1 1 3 5 6 7 8 9 8 8 7 8 8 9 9 9 9 9 10 10 10 10 10 10 10 10 10 10
4 3 4 5 3 2 1 3 4 4 2 2 2 3 3 3 1 2 3 5 6 7 9 9 9 8 7 7 7 7 8 8 9 9 9 10 9 9 9 10 10 10 10 10
2 4 5 4 3 4 6 6 6 5 4 4 4 4 4 4 3 4 3 4 5 7 8 9 9 8 8 7 6 6 7 8 8 9 9 8 8 8 9 9 9 10 10 10
4 5 4 2 2 6 8 9 11 7 7 7 7 5 7 6 5 4 3 4 5 6 8 8 8 8 7 7 6 5 6 6 7 8 8 8 8 8 8 8 9 9 9 9
4 4 2 2 4 5 5 3 8 9 9 10 6 5 8 7 4 4 5 5 5 5 7 7 8 7 6 5 4 4 4 5 6 7 8 8 8 8 8 8 8 9 8 8
3 4 3 3 4 5 3 6 8 9 8 13 12 10 9 6 6 7 5 4 4 5 6 6 7 7 6 6 5 3 3 4 6 7 7 7 8 8 8 8 8 8 7 7
2 5 5 4 5 3 2 8 8 6 7 12 16 14 12 10 7 5 5 3 2 2 4 5 5 6 6 6 5 3 3 4 5 6 6 6 7 7 7 8 8 7 6 7
6 6 7 7 6 5 5 10 11 7 1 11 17 15 14 13 5 6 6 3 2 1 2 3 4 4 5 5 4 3 3 4 4 4 4 5 6 6 7 6 6 6 6 6
7 6 6 6 7 3 12 13 11 5 4 10 15 15 15 11 7 6 5 4 3 2 1 2 3 3 4 5 4 3 4 3 2 3 3 4 5 5 5 6 6 6 6 6
7 6 3 7 4 4 14 10 8 4 7 9 14 14 14 13 11 9 7 5 4 3 2 1 2 3 2 4 4 4 3 1 2 3 3 3 4 4 4 5 5 5 6 5
6 4 6 8 9 8 13 12 8 8 8 9 13 14 15 14 12 10 8 6 6 5 3 2 2 2 2 3 3 3 1 2 3 4 3 2 2 3 4 3 4 4 5 6
4 8 7 9 8 6 11 16 15 12 9 9 13 14 15 14 13 11 9 8 6 5 4 3 2 1 2 2 2 2 1 2 4 4 3 2 1 1 2 2 3 4 5 5
9 11 9 7 6 6 4 9 18 16 14 13 15 15 15 14 13 12 10 8 7 6 5 4 4 3 2 1 1 1 1 3 4 3 3 2 1 1 1 1 1 2 1 2
Wind_Direction
41 60 47 25 11 349 324 295 88 92 104 87 99 95 71 45 32 22 14 8 4 358 354 355 350 347 342 341 341 340 337 338 334 327 321 311 300 289 270 259 251 239 237 237
112 67 39 20 13 308 277 236 128 110 106 115 118 100 75 45 30 19 8 3 359 354 352 354 350 348 343 341 339 335 337 336 335 327 313 296 293 282 274 264 255 242 234 229
84 67 36 39 40 25 60 327 149 142 129 137 161 137 73 46 29 22 14 5 2 357 352 351 350 347 344 343 340 335 335 333 334 330 319 311 300 285 273 264 254 242 232 224
82 65 50 55 43 347 133 47 199 177 197 148 250 210 69 19 18 15 10 5 2 358 354 352 349 347 346 342 337 334 334 335 337 332 331 325 313 305 299 289 269 251 235 225
98 63 39 40 33 350 21 355 225 200 205 171 51 275 72 17 7 5 3 3 1 359 356 354 352 349 349 344 341 340 339 341 340 337 336 328 321 310 302 299 283 265 240 227
97 85 31 21 44 7 260 156 143 178 209 194 25 316 50 19 355 352 357 1 3 360 358 358 359 358 354 352 353 352 352 351 348 346 348 345 337 332 330 332 321 299 256 227
124 92 62 357 264 145 231 229 203 193 202 99 45 355 52 14 357 352 352 357 3 3 1 3 4 3 1 359 0 360 0 0 359 359 0 353 348 347 352 352 350 358 3 14
174 110 50 24 5 351 17 301 311 308 48 118 159 62 64 18 2 1 3 3 4 6 5 5 4 4 5 5 4 6 4 4 3 3 2 2 359 356 4 9 10 21 18 11
150 106 99 50 29 333 321 43 347 328 98 154 122 116 131 29 17 14 12 10 10 9 8 7 5 6 8 9 7 7 6 9 7 9 8 9 10 13 14 17 21 24 28 33
96 122 104 143 192 64 22 1 255 270 270 167 139 123 27 14 10 9 10 8 8 8 8 10 9 4 6 9 7 9 11 10 8 11 14 14 15 19 19 22 27 26 27 33
231 134 127 137 35 19 38 91 26 54 334 314 134 96 52 360 355 354 2 7 7 3 2 5 5 3 4 8 12 13 15 14 11 12 18 22 23 24 26 29 27 26 28 28
0 237 117 96 80 19 29 21 310 311 95 1 61 105 103 344 340 343 355 4 3 359 358 2 4 5 9 11 12 18 19 17 15 15 21 27 27 29 31 31 30 30 33 32
172 225 166 163 165 170 98 61 16 3 150 189 221 111 136 214 311 349 352 351 352 354 357 2 5 8 9 12 16 21 22 19 19 21 25 28 33 35 34 33 33 35 36 36
254 151 341 31 70 106 137 158 212 258 254 169 175 133 170 199 236 340 350 349 348 354 1 3 2 9 11 11 17 21 22 20 19 25 28 31 34 35 37 37 37 38 38 38
249 121 101 91 109 169 208 197 207 240 277 277 158 197 185 187 223 303 316 329 340 354 359 1 359 1 5 11 16 20 20 20 20 26 30 29 33 36 37 39 38 39 37 38
220 154 160 165 185 237 249 224 214 221 222 224 208 215 189 191 220 250 278 316 332 348 353 353 356 357 359 6 9 15 18 19 21 27 30 28 29 33 34 36 36 36 36 36
176 186 221 193 186 255 250 218 206 208 206 207 212 189 172 197 213 238 276 298 320 335 342 347 352 356 352 360 0 7 13 15 22 28 29 27 29 31 30 32 33 31 35 35
192 197 241 256 233 254 84 106 195 212 215 211 214 181 188 199 208 241 262 278 304 330 337 344 346 350 348 355 359 5 17 15 24 30 31 30 28 30 30 31 29 26 29 32
267 214 238 261 273 276 180 183 189 208 228 207 206 197 192 192 217 223 217 245 289 322 331 337 340 342 349 360 353 353 29 35 36 33 32 33 31 31 29 28 27 25 24 28
179 233 246 245 272 267 117 152 173 205 243 195 196 193 186 189 211 168 163 205 254 303 327 337 340 348 4 9 358 354 29 41 46 40 37 36 35 32 29 26 22 23 26 25
189 202 227 242 261 266 127 147 169 212 299 165 185 188 186 196 195 123 155 190 224 279 320 325 336 358 6 360 357 17 35 48 57 58 52 44 42 39 32 26 22 20 26 27
210 201 210 214 234 245 144 164 201 227 105 170 181 185 187 191 174 162 182 194 205 224 273 320 334 3 9 3 357 28 46 55 90 99 80 58 47 40 39 36 29 27 23 26
224 226 228 225 255 63 176 197 208 210 187 181 182 183 184 186 185 190 195 195 198 214 219 286 320 334 6 18 4 14 50 118 155 142 113 81 67 56 41 35 33 32 27 23
203 209 238 254 255 228 210 218 212 210 208 189 185 182 185 187 189 191 194 194 197 202 206 235 271 308 12 17 8 5 16 193 185 168 153 134 77 64 57 38 27 29 25 18
207 186 223 248 260 236 223 218 211 204 205 191 187 186 187 189 190 190 192 195 197 196 199 217 247 292 328 352 4 9 329 220 200 183 179 179 115 52 38 50 32 16 40 22
197 199 209 244 240 220 211 202 202 199 199 194 188 188 191 192 191 191 194 191 194 198 199 207 216 237 254 301 347 19 315 249 228 202 191 195 194 201 316 357 111 149 342 49